www.pogodaiklimat.ru

Погода и климат >> Архив погоды >> Россия >> Калининградская область >> Рыбачий


ПОГОДА в Рыбачьем

  • Прогноз погоды в Рыбачьем
  • Монитор погоды в Рыбачьем
  • Климат города

АРХИВ ПОГОДЫ в Рыбачьем

Время (UTC), дата Ветер
(напр.,м/с)
 
Видим.   Явления Облачность Т
(С)
Тd
(С)
f
(%)
Тe
(С)
Тes
(С)
Комфортность P
(гПа)
Po
(гПа)
Тmin
(С)
Tmax
(С)
R
(мм)
R24
(мм)
S
(см)
03 18.06 СЗ 3-5
{7}
н/о н/о +18.0 +15.1 83 +18 +18 1015.2 1014.7
06 18.06 З 3-7
{7}
н/о н/о +18.8 +14.3 75 +20 +20 1016.6 1016.2 +17.7
09 18.06 СЗ 3-6
{7}
н/о н/о +20.0 +12.4 62 +22 +22 комфорт 1018.0 1017.5
12 18.06 З 4-7
{8}
н/о н/о +18.8 +13.8 73 +20 +20 1018.8 1018.4
15 18.06 З 3-6
{7}
н/о н/о +19.0 +11.3 61 +20 +20 1018.4 1018.0
18 18.06 ЮЗ 1-2
{6}
н/о н/о +18.5 +12.1 66 +20 +20 1018.0 1017.6 +20.7
21 18.06 ЮЗ 1-2
{2}
н/о н/о +16.6 +11.7 73 +17 +17 1018.2 1017.8
00 19.06 ЮЗ 3-4
{5}
н/о н/о +16.4 +10.6 69 +16 +16 1017.2 1016.7
03 19.06 Ю 4-7
{7}
н/о н/о +18.2 +13.0 72 +18 +18 1016.2 1015.7 +15.3
06 19.06 Ю 5-7
{8}
н/о н/о +19.5 +14.9 75 +21 +21 комфорт 1015.4 1014.9 +15.3
09 19.06 ЮЗ 5-9
{12}
н/о н/о +20.5 +14.3 68 +23 +23 комфорт 1015.5 1015.1
12 19.06 ЮЗ 6-13
{13}
н/о н/о +20.2 +15.3 73 +22 +22 комфорт 1016.3 1015.8
15 19.06 ЮЗ 5-10
{14}
н/о н/о +18.4 +14.8 80 +19 +19 1016.8 1016.3
18 19.06 ЮЗ 5-10
{12}
н/о н/о +17.9 +15.1 84 +17 +17 1016.9 1016.4 +22.4
21 19.06 ЮЗ 4-9
{11}
н/о н/о +17.1 +15.1 88 +17 +17 1017.0 1016.5
00 20.06 ЮЗ 5-9
{10}
н/о н/о +16.9 +14.1 84 +16 +16 1017.3 1016.8
03 20.06 З 4-7
{11}
н/о н/о +16.2 +10.6 69 +16 +16 1018.1 1017.6 +16.1
06 20.06 З 5-11
{11}
н/о н/о +17.2 +10.3 64 +17 +17 1019.1 1018.6 +16.1
09 20.06 З 5-7
{11}
н/о н/о +18.0 +11.7 67 +18 +18 1020.0 1019.5
12 20.06 ЮЗ 5-10
{11}
н/о н/о +18.6 +11.1 62 +19 +19 1019.8 1019.3
15 20.06 ЮЗ 4-8
{11}
н/о н/о +19.0 +11.2 61 +20 +20 1018.9 1018.4
18 20.06 ЮЗ 2-3
{8}
н/о н/о +18.0 +12.5 70 +19 +19 1016.9 1016.4 +19.3
21 20.06 Ю 3-5
{6}
н/о н/о +19.4 +14.7 74 +21 +21 комфорт 1015.2 1014.7
00 21.06 Ю 4-5
{8}
н/о н/о +18.6 +13.7 73 +19 +19 1013.5 1013.0
03 21.06 Ю 4-7
{9}
н/о н/о +18.9 +15.5 81 +20 +20 1011.5 1011.1
06 21.06 Ю 4-6
{8}
н/о н/о +21.2 +15.8 71 +24 +24 комфорт 1009.9 1009.4
18 21.06 З 2-4
{18}
н/о н/о +13.1 +11.9 92 +12 +12 1004.2 1003.8
21 21.06 ЮЗ 6-11
{11}
н/о н/о +14.0 +11.3 84 +12 +12 1004.5 1004.0
00 22.06 ЮЗ 6-11
{16}
н/о н/о +14.0 +9.5 74 +12 +12 1004.9 1004.4
03 22.06 ЮЗ 6-12
{14}
н/о н/о +13.7 +10.4 80 +12 +12 1005.5 1005.1 +12.8
06 22.06 Ю 6-11
{14}
н/о н/о +13.7 +9.7 77 +12 +12 1006.7 1006.2 +12.8
09 22.06 ЮЗ 8-13
{15}
н/о н/о +15.9 +8.5 61 +14 +14 1008.3 1007.9
12 22.06 ЮЗ 6-12
{16}
н/о н/о +14.8 +11.6 81 +13 +13 1010.0 1009.5
15 22.06 ЮЗ 6-11
{14}
н/о н/о +16.2 +10.9 71 +15 +15 1011.7 1011.2
18 22.06 ЮЗ 4-9
{11}
н/о н/о +15.6 +9.9 69 +15 +15 1012.1 1011.7 +16.6
21 22.06 ЮЗ 4-8
{10}
н/о н/о +15.0 +12.0 82 +14 +14 1012.2 1011.7
00 23.06 ЮЗ 4-8
{10}
н/о н/о +14.1 +11.1 82 +13 +13 1012.1 1011.7
03 23.06 Ю 4-6
{9}
н/о н/о +12.9 +11.0 88 +11 +11 1012.0 1011.5 +10.8
06 23.06 Ю 5-7
{8}
н/о н/о +15.0 +12.6 86 +14 +14 1012.0 1011.5 +10.8
09 23.06 Ю 2-3
{9}
н/о н/о +13.4 +11.2 87 +13 +13 1012.3 1011.8
12 23.06 З 2-5
{8}
н/о н/о +15.1 +9.4 69 +15 +15 1012.8 1012.3
15 23.06 СЗ 2-3
{8}
н/о н/о +15.4 +9.8 69 +15 +15 1012.5 1012.0
18 23.06 З 2-3
{7}
н/о н/о +14.3 +8.6 69 +14 +14 1012.4 1011.9 +16.6
21 23.06 З 1-3
{4}
н/о н/о +13.0 +8.2 73 +13 +13 1012.5 1012.0
00 24.06 СЗ 2-3
{5}
н/о н/о +12.2 +7.1 71 +11 +11 1012.0 1011.6
03 24.06 СЗ 1-3
{4}
н/о н/о +12.9 +8.2 73 +13 +13 1011.2 1010.7 +11.8
06 24.06 С 3-5
{6}
н/о н/о +13.6 +10.0 79 +12 +12 1011.5 1011.1 +11.8
09 24.06 СЗ 3-6
{7}
н/о н/о +15.2 +9.8 70 +15 +15 1012.0 1011.5

 

Местоположение метеостанции Рыбачий (Калининградская область, Россия): широта 55.16 долгота 20.84 высота над уровнем моря 3 м.

В архиве по умолчанию представлена погода в Рыбачьем за последнюю неделю. Архивные данные за месяц целиком и за предыдущие месяцы, начиная с января 2011 года, Вы можете получить, выбрав интересующий диапазон дат из раскрывающегося списка и нажав кнопку "Ввод!".


*Определитесь, кто Вы:
робот инопланетянин человек

Внимание! Время в таблицах - всемирное. Для получения местного времени необходимо прибавить поправку, которая в Рыбачьем равна 2 ч.

Смотрите также архив погоды в соседних городах и на ближайших метеорологических станциях:

Погода в Nidoje (Литва) (21 км)
Погода в ?ilut? (Литва) (44 км)
Погода в Пионерском (Калининградская область, Россия) (46 км)
Погода в Калининграде (Калининградская область, Россия) (53 км)
Погода в Рыбном Порту (Калининградская область, Россия) (57 км)
Погода в Klaip?da (Литва) (65 км)
Погода в Советске (Калининградская область, Россия) (70 км)
Погода в Балтийске (Калининградская область, Россия) (84 км)
Погода в Черняховске (Калининградская область, Россия) (85 км)
Погода в Железнодорожном (Калининградская область, Россия) (93 км)

Пояснения к столбцам:

Ветер - указаны скорость ветра в м/с - средняя за 10 мин, порывы в срок и между сроками (в фигурных скобках) и направление, откуда дует ветер: С - северный, СВ - северо-восточный, В - восточный, ЮВ - юго-восточный, Ю - южный, ЮЗ - юго-западный, З - западный, СЗ - северо-западный.
Видимость - горизонтальная дальность видимости в метрах или километрах. При видимости от 1 до 10 км при отсутствии осадков обычно наблюдается дымка, при ухудшении видимости до 1 км и менее - туман. В сухую погоду видимость может ухудшаться дымом, пылью или мглою.
Явления - указаны атмосферные явления, наблюдавшиеся в срок или в последний час перед сроком; фигурными скобками обозначены явления, наблюдавшиеся между сроками (за 1-3 часа до срока); квадратными скобками обозначены град или гололедные отложения с указанием их диаметра в мм.
Облачность - указаны через наклонную черту общая и нижняя облачность в баллах и высота нижней границы облаков в метрах; квадратными скобками обозначены формы облаков: Ci - перистые, Cs - перисто-слоистые, Cc - перисто-кучевые, Ac - высококучевые, As - высокослоистые, Sc - слоисто-кучевые, Ns - слоисто-дождевые, Cu - кучевые, Cb - кучево-дождевые. Подробнее классификацию облаков см. в Атласе облаков (PDF).
T - Температура воздуха - температура, измеренная на высоте 2 м над землей.
Td - Температура точки росы - температура, при понижении до которой содержащийся в воздухе водяной пар достигнет насыщения.
f - Относительная влажность воздуха - влажноcть воздуха, измеренная на высоте 2 м над землей.
Te - Эффективная температура - температура, которую ощущает одетый по сезону человек в тени. Характеристика душности погоды. При расчете учитывается влияние влажности воздуха и скорости ветра на теплоощущения человека.
Tes - Эффективная температура на солнце - температура, которую ощущает человек, с поправкой на солнечный нагрев. Характеристика знойности погоды. Зависит от высоты солнца над горизонтом, облачности и скорости ветра. Ночью, в пасмурную погоду, а также при ветре 12 м/с и более поправка равна нулю.
P - Атмосферное давление - приведенное к уровню моря атмосферное давление.
Po - Атмосферное давление - измеренное на уровне метеостанции атмосферное давление.
Tmin - Минимальная температура - минимум температуры воздуха на высоте 2 м над землей.
Tmax - Максимальная температура - максимум температуры воздуха на высоте 2 м над землей.
R - Количество осадков - Количество выпавших осадков за период времени, мм. При наведении курсора мыши на число - период времени, за который выпало указанное количество осадков.
R24 - Количество осадков - Количество выпавших осадков за 24 часа, мм.
S - Снежный покров - Высота снежного покрова, см. При наведении курсора мыши на число - состояние снежного покрова и степень покрытия местности в баллах.